Location: Unspecified
(0.0000°N, 0.0000°E)
Time: 01:20:15
(UTC+00:00)

Orbcomm D8 (FM36) - Pass Details

Date: 08 June 2023
Orbit: 773 x 779 km, 45.0° (Epoch: 25 September)

Event Time Altitude Azimuth Distance (km) Brightness Sun altitude
Rises 18:07:47 0° 307° (NW) 3,230 13.8 -2.0°
Reaches altitude 10° 18:10:18 10° 301° (WNW) 2,304 12.9 -2.6°
Maximum altitude 18:15:29 48° 228° (SW) 1,003 9.4 -3.8°
Drops below altitude 10° 18:20:41 10° 154° (SSE) 2,312 10.5 -5.0°
Enters shadow 18:23:11 - 148° (SSE) 3,228 11.2 -5.5°
